[[{"header":{"parameterUnit":"m.s-1","parameterCategory":2,"la1":30.2991,"la2":30.254,"lo1":-89.0895,"lo2":-89.0444,"dy":0.0017,"dx":0.0017,"nx":28,"ny":28,"refTime":"2025-06-16T03:00:00:Z","depth":"0","parameterNumber":2,"parameterNumberName":"U-component_of_CURRENTS"},"data":[0,0,0,0,0,0,0,0,0,0,0,0,0,0,0,0,0,0,0,0,0,0,0,0,0,0,0,0,0,0,0,0,0,0,0,0,0,0,0,0,0,0,0,0,0,0,0,0,0,0,0,0,0,0,0,0,0,0,0.2073,0.2073,0,0.2102,0.2102,0.2101,0.2096,0.2096,0.2096,0.2096,0.2049,0.2048,0.2047,0,0,0,0,0,0,0,0,0,0,0,0,0,0.1987,0.1988,0.2073,0.2073,0.2074,0.2102,0.2102,0.2101,0.2096,0.2096,0.2096,0.2096,0.205,0.2048,0.2047,0,0,0,0,0,0,0,0,0,0,0,0,0,0.2016,0.1989,0.2072,0.2078,0.208,0.2102,0.2102,0.2101,0.2096,0.2096,0.2096,0.2096,0.205,0.2049,0.2047,0.2038,0,0,0.2042,0.2041,0,0,0,0,0,0,0,0,0.2014,0.2019,0.2077,0.2078,0.208,0.2099,0.2055,0.2078,0.2096,0.2084,0.2096,0.2096,0.2063,0.206,0.2059,0.2036,0.2034,0.2041,0.204,0.204,0.2039,0,0,0,0,0,0,0,0.2012,0.2017,0.2079,0.2078,0.208,0.2072,0.2075,0.2059,0.2068,0.2085,0.2086,0.2098,0.2062,0.2061,0.2058,0.2033,0.2041,0.204,0.2039,0.2038,0.2051,0.2053,0,0,0,0,0,0,0.2021,0.2016,0.2078,0.208,0.2052,0.2074,0.2077,0.2089,0.207,0.2069,0.2098,0.2097,0.2064,0.206,0.2056,0.2077,0.204,0.2038,0.2037,0.205,0.2051,0.2053,0,0,0,0,0,0,0.2019,0.2026,0.2077,0.2052,0.2059,0.2076,0.2088,0.209,0.2092,0.2081,0.2078,0.2099,0.2064,0.2059,0.2055,0.2074,0.2037,0.2036,0.2048,0.205,0.2052,0.2096,0,0,0,0,0,0,0.2016,0.2025,0.2032,0.2053,0.2061,0.2101,0.2089,0.2091,0.2101,0.2101,0.2081,0.2077,0.2063,0.2058,0.2054,0.207,0.2034,0.2046,0.2049,0.2052,0.2093,0.21,0.2105,0,0,0,0,0,0.2013,0.202,0.2032,0.204,0.2072,0.2103,0.2106,0.2113,0.2102,0.2111,0.2099,0.2078,0.2072,0.2058,0.2052,0.2069,0.2045,0.2048,0.2051,0.209,0.2098,0.2105,0,0,0,0,0,0,0.1976,0.2021,0.2035,0.2053,0.2085,0.2104,0.2108,0.2115,0.2112,0.2106,0.2086,0.2082,0.2093,0.2075,0.2059,0.2084,0.2059,0.2061,0.2091,0.2098,0.2104,0.2087,0.2033,0,0,0,0,0,0.1977,0.1997,0.204,0.2054,0.2069,0.2089,0.2099,0.2113,0.2118,0.2117,0.2107,0.2099,0.2101,0.2094,0.2094,0.2093,0.2087,0.2106,0.2112,0.2117,0.2102,0.2126,0.2132,0.2063,0.2063,0.2063,0,0,0.1965,0.1993,0.2003,0.2049,0.2065,0.2085,0.2093,0.2116,0.2127,0.211,0.211,0.212,0.2109,0.2122,0.2125,0.2106,0.2137,0.2121,0.2125,0.2106,0.213,0.2136,0.2142,0.2066,0.2065,0.2065,0,0,0.1952,0.1978,0.1993,0.2022,0.2066,0.2083,0.2092,0.2124,0.2132,0.2146,0.2144,0.2161,0.2152,0.2158,0.2155,0.2191,0.2176,0.2201,0.2205,0.223,0.2235,0.224,0.2254,0.2259,0.2196,0.2196,0.2196,0,0.1935,0.1963,0.2001,0.2025,0.2044,0.208,0.2098,0.2113,0.214,0.2148,0.215,0.2167,0.2166,0.2178,0.2201,0.2202,0.2212,0.2176,0.2236,0.2241,0.2245,0.2258,0.2263,0.2198,0.2198,0.2198,0.2197,0,0.194,0.1962,0.197,0.2012,0.204,0.2062,0.2101,0.212,0.2134,0.2155,0.2183,0.2194,0.22,0.222,0.2217,0.2251,0.2249,0.2248,0.2214,0.2254,0.2266,0.227,0.2202,0.2201,0.22,0.22,0,0,0.189,0.1961,0.196,0.1979,0.2037,0.2054,0.2081,0.2117,0.2123,0.2162,0.2175,0.2206,0.2223,0.2221,0.2236,0.226,0.2312,0.2267,0.2268,0.2273,0.2365,0.2199,0.2188,0.2328,0.2329,0.2329,0.2367,0,0.1877,0.1912,0.1956,0.1976,0.1994,0.2043,0.206,0.2099,0.2129,0.2152,0.2186,0.2204,0.222,0.2231,0.2261,0.2304,0.2324,0.2301,0.2331,0.2331,0.2171,0.2187,0.2053,0.2059,0.2371,0.2372,0.2372,0,0.1858,0.1886,0.1912,0.196,0.1972,0.1988,0.2022,0.2051,0.21,0.2124,0.2158,0.2187,0.2233,0.224,0.2312,0.2301,0.2329,0.2358,0.236,0.2183,0.2171,0.2068,0.2056,0.1988,0.2379,0.2379,0.2378,0,0.1791,0.1845,0.1862,0.188,0.1944,0.1956,0.1986,0.2036,0.2061,0.2107,0.213,0.2183,0.2212,0.2264,0.2317,0.2327,0.2388,0.2408,0.228,0.227,0.2143,0.2118,0.2053,0.2443,0.2443,0.2443,0.2443,0,0.1755,0.1761,0.1828,0.1834,0.1844,0.1909,0.1924,0.1958,0.2017,0.2044,0.2109,0.2133,0.2223,0.2268,0.2316,0.2292,0.2383,0.2265,0.2259,0.2154,0.2131,0.2053,0.2038,0.2444,0.2444,0.2443,0.2443,0,0.1681,0.1727,0.1742,0.1801,0.1814,0.1819,0.1886,0.1903,0.1963,0.2001,0.2018,0.2111,0.2148,0.2208,0.2288,0.2262,0.2182,0.2245,0.21,0.2071,0.1836,0.1827,0.1665,0.1636,0.2101,0.2097,0.2093,0,0.1652,0.1655,0.17,0.1707,0.1732,0.1758,0.178,0.1856,0.1885,0.1978,0.1994,0.2044,0.2049,0.2077,0.2043,0.2037,0.2037,0.19,0.1868,0.1773,0.1764,0.1721,0.1709,0.1753,0.1747,0.1742,0.1738,0,0.1596,0.1611,0.1629,0.1637,0.1655,0.1679,0.172,0.1739,0.183,0.1857,0.19,0.191,0.1894,0.1797,0.1747,0.1748,0.1748,0.1792,0.1755,0.1505,0.1397,0.1382,0.1787,0.1695,0.1699,0.1702,0.1705,0.1706,0.1552,0.1545,0.1566,0.1567,0.1585,0.1597,0.1594,0.1641,0.1664,0.168,0.1756,0.1697,0.161,0.1495,0.1478,0.1316,0.1402,0.1268,0.128,0.1256,0.1155,0.1423,0.1271,0.1272,0.1274,0.1275,0.1277,0,0.1499,0.1497,0.1497,0.1498,0.1487,0.152,0.1548,0.1533,0.152,0.151,0.1498,0.1338,0.119,0.1128,0.094,0.0839,0.086,0.0819,0.0784,0.0816,0.1109,0.1018,0.0727,0.0727,0.0727,0.0727,0.0727,0.0727,0.1472,0.1447,0.1441,0.1398,0.1398,0.1365,0.1365,0.1341,0.1315,0.1187,0.1063,0.1017,0.0909,0.0679,0.0517,0.0513,0.0511,0.0395,0.049,0.074,0.0786,0.0829,0.0741,0.0395,0.0395,0.0161,0.0159,0.0157]},{"header":{"parameterUnit":"m.s-1","parameterCategory":2,"la1":30.2991,"la2":30.254,"lo1":-89.0895,"lo2":-89.0444,"dy":0.0017,"dx":0.0017,"nx":28,"ny":28,"refTime":"2025-06-16T03:00:00:Z","depth":"0","parameterNumber":3,"parameterNumberName":"V-component_of_CURRENTS"},"data":[0,0,0,0,0,0,0,0,0,0,0,0,0,0,0,0,0,0,0,0,0,0,0,0,0,0,0,0,0,0,0,0,0,0,0,0,0,0,0,0,0,0,0,0,0,0,0,0,0,0,0,0,0,0,0,0,0,0,0.0238,0.0238,0,0.024,0.024,0.024,0.0235,0.0235,0.0235,0.0235,0.0243,0.0243,0.0244,0,0,0,0,0,0,0,0,0,0,0,0,0,0.0243,0.0243,0.0238,0.0238,0.0238,0.024,0.024,0.024,0.0235,0.0235,0.0235,0.0234,0.0243,0.0243,0.0244,0,0,0,0,0,0,0,0,0,0,0,0,0,0.0243,0.0243,0.0238,0.0235,0.0235,0.024,0.024,0.024,0.0235,0.0235,0.0235,0.0234,0.0242,0.0243,0.0244,0.0253,0,0,0.0246,0.0246,0,0,0,0,0,0,0,0,0.0243,0.0243,0.0236,0.0236,0.0235,0.0236,0.0245,0.0245,0.0235,0.0236,0.0235,0.0234,0.0241,0.0242,0.0244,0.0254,0.0254,0.0246,0.0246,0.0246,0.0246,0,0,0,0,0,0,0,0.0243,0.0243,0.0239,0.0236,0.0235,0.0238,0.0238,0.0245,0.0241,0.0236,0.0235,0.0235,0.0241,0.0243,0.0244,0.0254,0.0246,0.0246,0.0246,0.0247,0.0282,0.0283,0,0,0,0,0,0,0.0241,0.0243,0.0239,0.0239,0.0238,0.0238,0.0238,0.0237,0.024,0.0241,0.0235,0.0234,0.0242,0.0243,0.0244,0.0269,0.0246,0.0247,0.0247,0.0281,0.0282,0.0283,0,0,0,0,0,0,0.0241,0.0241,0.0239,0.0241,0.0241,0.0238,0.0237,0.0237,0.0237,0.024,0.024,0.0235,0.0242,0.0243,0.0252,0.0269,0.0247,0.0248,0.0281,0.0282,0.0282,0.0311,0,0,0,0,0,0,0.0242,0.0241,0.0242,0.0241,0.024,0.0247,0.0238,0.0237,0.0237,0.0236,0.024,0.024,0.0242,0.0251,0.0253,0.0269,0.0248,0.028,0.0281,0.0282,0.0309,0.0312,0.0315,0,0,0,0,0,0.0242,0.0248,0.0242,0.0242,0.0241,0.0247,0.0248,0.0245,0.0237,0.0243,0.0243,0.024,0.0259,0.0252,0.0254,0.0271,0.0279,0.0281,0.0282,0.0307,0.0312,0.0315,0,0,0,0,0,0,0.0255,0.0248,0.0241,0.0246,0.0247,0.0246,0.0251,0.0246,0.025,0.025,0.0246,0.0247,0.0263,0.0261,0.0253,0.0284,0.027,0.0271,0.0288,0.0292,0.0295,0.0305,0.0249,0,0,0,0,0,0.0257,0.0257,0.0252,0.0256,0.0256,0.0252,0.0254,0.0253,0.0255,0.0256,0.0257,0.0261,0.0271,0.0275,0.0284,0.0298,0.03,0.031,0.0313,0.0316,0.0325,0.0336,0.0341,0.0287,0.0287,0.0287,0,0,0.0263,0.0259,0.0259,0.0259,0.0258,0.027,0.0253,0.026,0.0272,0.0257,0.0274,0.0273,0.0277,0.0296,0.0303,0.0295,0.0333,0.0318,0.032,0.0328,0.0338,0.0343,0.0347,0.0288,0.0288,0.0287,0,0,0.0281,0.0271,0.028,0.0283,0.0284,0.0284,0.0285,0.0286,0.0288,0.0301,0.0296,0.0304,0.0314,0.0324,0.0328,0.0353,0.0349,0.0353,0.0378,0.0388,0.0393,0.0397,0.0408,0.0413,0.0355,0.0355,0.0355,0,0.0291,0.0298,0.0285,0.0298,0.0304,0.0291,0.0308,0.0311,0.0317,0.0324,0.0312,0.0332,0.0332,0.0357,0.0366,0.0362,0.0364,0.0364,0.0393,0.0397,0.04,0.0411,0.0416,0.0356,0.0356,0.0356,0.0356,0,0.0318,0.0324,0.0331,0.034,0.0346,0.0359,0.0359,0.0367,0.0363,0.0367,0.0386,0.0382,0.0394,0.0395,0.0388,0.0416,0.0409,0.0395,0.0383,0.0408,0.0417,0.0421,0.0359,0.0358,0.0358,0.0357,0,0,0.0337,0.0348,0.0351,0.036,0.0369,0.0378,0.0397,0.0412,0.0428,0.0429,0.0452,0.0459,0.0451,0.0456,0.0447,0.0454,0.0479,0.0437,0.0437,0.0449,0.0503,0.0487,0.049,0.0467,0.0468,0.0469,0.05,0,0.0363,0.0393,0.0391,0.0421,0.0435,0.0431,0.0452,0.0465,0.0469,0.0489,0.0485,0.0504,0.0476,0.0483,0.0485,0.0487,0.0492,0.0472,0.0478,0.0478,0.0461,0.0495,0.051,0.0538,0.0504,0.0505,0.0506,0,0.0392,0.0406,0.0438,0.0459,0.0465,0.0481,0.0506,0.0524,0.0545,0.055,0.056,0.0556,0.0575,0.0541,0.0554,0.0542,0.0526,0.0519,0.0519,0.0499,0.0471,0.0508,0.0548,0.0572,0.0513,0.0512,0.0512,0,0.0412,0.044,0.0464,0.0472,0.0495,0.0508,0.0523,0.0545,0.0568,0.0592,0.0614,0.0619,0.0639,0.0619,0.0599,0.0581,0.0609,0.058,0.055,0.0549,0.0561,0.0559,0.0627,0.0585,0.0584,0.0584,0.0584,0,0.044,0.0459,0.0475,0.0489,0.0522,0.0531,0.0569,0.0582,0.0615,0.066,0.0648,0.0688,0.066,0.0668,0.0629,0.0613,0.0632,0.0568,0.056,0.0571,0.0569,0.0589,0.0592,0.0586,0.0585,0.0585,0.0585,0,0.0458,0.0469,0.0498,0.0523,0.0532,0.0557,0.0598,0.063,0.0656,0.0716,0.073,0.0759,0.0773,0.0733,0.0718,0.0666,0.0654,0.0622,0.0636,0.0628,0.0609,0.0612,0.0661,0.0686,0.06,0.06,0.06,0,0.0468,0.0485,0.0519,0.054,0.0551,0.0588,0.0618,0.0647,0.0687,0.0766,0.0804,0.0836,0.0867,0.0833,0.0754,0.0688,0.068,0.0645,0.0606,0.0626,0.0624,0.0625,0.0642,0.0637,0.0638,0.0638,0.0638,0,0.0484,0.0498,0.0523,0.0566,0.0597,0.0638,0.0684,0.0723,0.0777,0.0839,0.0924,0.0957,0.0928,0.0888,0.0787,0.0727,0.0677,0.0644,0.0672,0.067,0.0671,0.0685,0.0598,0.0639,0.0639,0.0639,0.0639,0.0639,0.0494,0.0516,0.055,0.0592,0.0631,0.0685,0.0729,0.0793,0.0873,0.0967,0.0999,0.1052,0.0997,0.087,0.0805,0.0705,0.0697,0.0667,0.0674,0.0675,0.0692,0.0605,0.0626,0.0626,0.0626,0.0625,0.0625,0,0.0501,0.053,0.0572,0.0623,0.0669,0.0689,0.077,0.0827,0.0933,0.1008,0.1079,0.1082,0.1027,0.0933,0.0808,0.0755,0.0737,0.0728,0.0751,0.077,0.0704,0.0698,0.073,0.073,0.0729,0.0729,0.0729,0.0729,0.0505,0.0542,0.0566,0.0638,0.068,0.0748,0.0798,0.0894,0.0964,0.106,0.1085,0.1101,0.1072,0.0945,0.0867,0.083,0.0847,0.0807,0.0826,0.0792,0.0788,0.0783,0.078,0.0828,0.0828,0.0906,0.0907,0.0907]}],[{"header":{"parameterUnit":"m.s-1","parameterCategory":2,"la1":30.2991,"la2":30.254,"lo1":-89.0895,"lo2":-89.0444,"dy":0.0017,"dx":0.0017,"nx":28,"ny":28,"refTime":"2025-06-16T03:00:00:Z","depth":"2","parameterNumber":2,"parameterNumberName":"U-component_of_CURRENTS"},"data":[0,0,0,0,0,0,0,0,0,0,0,0,0,0,0,0,0,0,0,0,0,0,0,0,0,0,0,0,0,0,0,0,0,0,0,0,0,0,0,0,0,0,0,0,0,0,0,0,0,0,0,0,0,0,0,0,0,0,0.1388,0.1388,0,0.1402,0.1402,0.1402,0.1438,0.1438,0.1439,0.1439,0.1434,0.1433,0.1433,0,0,0,0,0,0,0,0,0,0,0,0,0,0.1437,0.1436,0.1388,0.1388,0.1388,0.1401,0.1402,0.1403,0.1438,0.1438,0.1439,0.1439,0.1434,0.1433,0.1432,0,0,0,0,0,0,0,0,0,0,0,0,0,0.1433,0.1436,0.1388,0.1404,0.1406,0.1401,0.1402,0.1403,0.1438,0.1438,0.1439,0.144,0.1434,0.1433,0.1432,0.1416,0,0,0.143,0.143,0,0,0,0,0,0,0,0,0.1433,0.1432,0.1402,0.1403,0.1404,0.1415,0.1417,0.1405,0.1438,0.143,0.1439,0.144,0.1423,0.1423,0.143,0.1415,0.1415,0.143,0.1429,0.1429,0.1429,0,0,0,0,0,0,0,0.1434,0.1432,0.1398,0.1402,0.1403,0.1425,0.1425,0.1415,0.1425,0.1431,0.1432,0.1427,0.1424,0.1431,0.143,0.1415,0.143,0.1429,0.1429,0.1428,0.1474,0.1475,0,0,0,0,0,0,0.1421,0.1432,0.1397,0.1398,0.1416,0.1423,0.1424,0.1414,0.1426,0.1427,0.1427,0.1429,0.1432,0.1431,0.143,0.1471,0.1429,0.1428,0.1428,0.1472,0.1474,0.1476,0,0,0,0,0,0,0.1422,0.1417,0.1397,0.1412,0.1411,0.1421,0.1411,0.1414,0.1435,0.1422,0.1424,0.1445,0.1432,0.1431,0.1444,0.1469,0.1428,0.1427,0.147,0.1473,0.1475,0.1514,0,0,0,0,0,0,0.1423,0.1417,0.1425,0.1411,0.1409,0.1418,0.141,0.1414,0.1428,0.1432,0.1438,0.1438,0.1433,0.1446,0.1444,0.1467,0.1427,0.1468,0.1471,0.1474,0.1511,0.1518,0.1524,0,0,0,0,0,0.1425,0.1428,0.1425,0.1422,0.1412,0.1419,0.1422,0.1434,0.1429,0.1452,0.1453,0.1438,0.1465,0.1446,0.1443,0.1467,0.1466,0.147,0.1474,0.1508,0.1516,0.1523,0,0,0,0,0,0,0.1446,0.1431,0.1428,0.1425,0.1432,0.1424,0.1438,0.144,0.1458,0.1464,0.1448,0.1449,0.1476,0.1466,0.1445,0.1493,0.1467,0.1471,0.1494,0.1502,0.1508,0.1487,0.1426,0,0,0,0,0,0.1452,0.1451,0.1445,0.144,0.1444,0.1442,0.1449,0.1461,0.1463,0.1473,0.1471,0.1476,0.1487,0.1489,0.15,0.1511,0.1509,0.153,0.1537,0.1542,0.1525,0.1559,0.1566,0.1488,0.1488,0.1488,0,0,0.1454,0.1445,0.1444,0.1445,0.1445,0.1453,0.145,0.1468,0.1476,0.1466,0.1482,0.1499,0.1498,0.1524,0.1535,0.1517,0.1568,0.1547,0.1551,0.1531,0.1563,0.157,0.1577,0.1491,0.149,0.149,0,0,0.1451,0.1452,0.1455,0.1464,0.1474,0.1477,0.1484,0.1494,0.1507,0.1524,0.1526,0.1553,0.1559,0.1569,0.157,0.1613,0.1606,0.163,0.1634,0.1668,0.1674,0.1679,0.1702,0.1709,0.1627,0.1627,0.1627,0,0.1457,0.1451,0.1459,0.1465,0.1471,0.1484,0.1496,0.1506,0.1522,0.1533,0.1539,0.1572,0.1576,0.1596,0.1618,0.1625,0.1641,0.1602,0.1675,0.168,0.1684,0.1706,0.1713,0.1629,0.1629,0.1629,0.1629,0,0.1454,0.1459,0.1459,0.1466,0.1485,0.1498,0.1511,0.1539,0.1553,0.1559,0.1599,0.1614,0.1632,0.165,0.164,0.1682,0.1683,0.1684,0.1649,0.1694,0.1715,0.1721,0.1633,0.1632,0.1631,0.1631,0,0,0.1441,0.1455,0.1457,0.1458,0.1491,0.1495,0.1527,0.1553,0.1566,0.1599,0.1616,0.1647,0.1664,0.1667,0.1678,0.1699,0.1754,0.1703,0.1704,0.1715,0.1829,0.1693,0.1687,0.1774,0.1775,0.1776,0.1835,0,0.1436,0.1437,0.1459,0.1466,0.1468,0.1507,0.1523,0.1556,0.159,0.1614,0.164,0.1664,0.1666,0.1689,0.1713,0.1748,0.1771,0.1737,0.1791,0.1792,0.1657,0.1689,0.1541,0.1568,0.1841,0.1842,0.1843,0,0.1427,0.143,0.1437,0.1453,0.146,0.1475,0.1522,0.1545,0.1593,0.1622,0.1664,0.1684,0.1723,0.1719,0.1788,0.1772,0.1797,0.1817,0.182,0.1674,0.1667,0.1566,0.1569,0.1853,0.1852,0.1852,0.1851,0,0.1395,0.1412,0.1412,0.1419,0.1447,0.1469,0.1494,0.155,0.1576,0.1634,0.1668,0.1712,0.174,0.1787,0.1816,0.1822,0.1877,0.1897,0.1795,0.1787,0.1656,0.1632,0.1936,0.1936,0.1936,0.1936,0.1935,0,0.137,0.137,0.1394,0.1391,0.1404,0.144,0.1477,0.1514,0.1573,0.1599,0.1665,0.1692,0.176,0.1794,0.1827,0.1812,0.1892,0.1786,0.1787,0.1666,0.1643,0.188,0.1873,0.1938,0.1937,0.1937,0.1937,0,0.1332,0.1343,0.1347,0.1377,0.1386,0.14,0.1463,0.1486,0.1553,0.1599,0.1618,0.1688,0.1726,0.1769,0.1833,0.1806,0.1821,0.1793,0.1629,0.1607,0.1716,0.1711,0.171,0.1706,0.1702,0.1699,0.1696,0,0.1308,0.1303,0.1333,0.1334,0.1349,0.138,0.14,0.1469,0.15,0.1586,0.1592,0.1643,0.164,0.1664,0.1633,0.1637,0.1728,0.1495,0.146,0.1688,0.1691,0.1692,0.1691,0.1332,0.1326,0.1322,0.1318,0,0.1271,0.1287,0.1292,0.1297,0.1311,0.1332,0.1367,0.1386,0.1461,0.1487,0.1505,0.1506,0.1503,0.1403,0.1377,0.1373,0.148,0.14,0.1704,0.1382,0.1327,0.1331,0.1344,0.1279,0.1283,0.1285,0.1288,0.1289,0.1251,0.1247,0.1253,0.1252,0.1269,0.127,0.1264,0.1289,0.1301,0.1308,0.1359,0.1302,0.1292,0.1151,0.1106,0.1078,0.1203,0.117,0.1186,0.1207,0.1123,0.1061,0.0948,0.095,0.0952,0.0953,0.0955,0,0.1212,0.1206,0.1201,0.1195,0.1185,0.1214,0.1222,0.119,0.1158,0.1156,0.113,0.0984,0.088,0.0894,0.0768,0.0743,0.0778,0.0728,0.0776,0.0813,0.0848,0.0748,0.0473,0.0472,0.0471,0.047,0,0,0.1191,0.1163,0.1153,0.1109,0.1106,0.1068,0.1057,0.1003,0.0977,0.0892,0.0832,0.0846,0.085,0.0655,0.0615,0.0523,0.0677,0.0498,0.0882,0.0977,0.101,0.1093,0.0979,0,0,0,0,0]},{"header":{"parameterUnit":"m.s-1","parameterCategory":2,"la1":30.2991,"la2":30.254,"lo1":-89.0895,"lo2":-89.0444,"dy":0.0017,"dx":0.0017,"nx":28,"ny":28,"refTime":"2025-06-16T03:00:00:Z","depth":"2","parameterNumber":3,"parameterNumberName":"V-component_of_CURRENTS"},"data":[0,0,0,0,0,0,0,0,0,0,0,0,0,0,0,0,0,0,0,0,0,0,0,0,0,0,0,0,0,0,0,0,0,0,0,0,0,0,0,0,0,0,0,0,0,0,0,0,0,0,0,0,0,0,0,0,0,0,0.0095,0.0094,0,0.0088,0.0088,0.0088,0.0079,0.0079,0.0079,0.0079,0.0084,0.0084,0.0085,0,0,0,0,0,0,0,0,0,0,0,0,0,0.0109,0.0108,0.0095,0.0094,0.0094,0.0088,0.0088,0.0088,0.0079,0.0079,0.0079,0.0079,0.0084,0.0084,0.0085,0,0,0,0,0,0,0,0,0,0,0,0,0,0.0103,0.0108,0.0095,0.0088,0.0088,0.0088,0.0088,0.0088,0.0079,0.0079,0.0079,0.0078,0.0084,0.0084,0.0085,0.0095,0,0,0.0086,0.0087,0,0,0,0,0,0,0,0,0.0104,0.0103,0.009,0.0089,0.0088,0.0083,0.0095,0.0091,0.008,0.0084,0.0079,0.0078,0.0084,0.0085,0.0086,0.0095,0.0096,0.0086,0.0087,0.0087,0.0087,0,0,0,0,0,0,0,0.0104,0.0103,0.0093,0.0089,0.0088,0.0089,0.0088,0.0094,0.0087,0.0083,0.0082,0.008,0.0084,0.0085,0.0086,0.0096,0.0086,0.0087,0.0087,0.0087,0.0113,0.0113,0,0,0,0,0,0,0.0103,0.0104,0.0093,0.0093,0.0094,0.0089,0.0088,0.0086,0.0087,0.0086,0.008,0.008,0.0084,0.0085,0.0086,0.0106,0.0087,0.0087,0.0088,0.0113,0.0113,0.0114,0,0,0,0,0,0,0.0103,0.0102,0.0093,0.0097,0.0096,0.0089,0.0087,0.0086,0.0086,0.0084,0.0084,0.0081,0.0084,0.0085,0.0093,0.0106,0.0088,0.0088,0.0112,0.0113,0.0113,0.0141,0,0,0,0,0,0,0.0103,0.0102,0.0102,0.0097,0.0096,0.0095,0.0087,0.0086,0.0084,0.0083,0.0085,0.0085,0.0084,0.0093,0.0094,0.0106,0.0089,0.0112,0.0113,0.0113,0.014,0.0142,0.0145,0,0,0,0,0,0.0104,0.0108,0.0102,0.0101,0.0095,0.0096,0.0095,0.009,0.0085,0.0088,0.0088,0.0085,0.0098,0.0093,0.0095,0.0107,0.0112,0.0112,0.0113,0.0138,0.0142,0.0145,0,0,0,0,0,0,0.0117,0.0107,0.0101,0.0102,0.0098,0.0094,0.0096,0.0091,0.0094,0.0094,0.0091,0.0092,0.0102,0.0101,0.0096,0.0116,0.0104,0.0105,0.0122,0.0125,0.0128,0.0135,0.0089,0,0,0,0,0,0.0119,0.0117,0.0108,0.011,0.0109,0.0102,0.0102,0.0098,0.0098,0.0099,0.0099,0.0102,0.0108,0.0112,0.0115,0.0129,0.0128,0.0137,0.014,0.0142,0.0148,0.0153,0.0156,0.0116,0.0116,0.0116,0,0,0.0124,0.0119,0.0118,0.0113,0.011,0.0117,0.0102,0.0104,0.0112,0.01,0.0113,0.011,0.0112,0.0126,0.0131,0.0127,0.0153,0.0143,0.0145,0.015,0.0154,0.0158,0.0161,0.0117,0.0117,0.0117,0,0,0.0139,0.013,0.0135,0.0133,0.0129,0.0128,0.0129,0.0125,0.0125,0.0135,0.0129,0.0134,0.0142,0.0147,0.0151,0.017,0.0165,0.0169,0.0192,0.0196,0.02,0.0203,0.021,0.0214,0.0173,0.0173,0.0173,0,0.0147,0.0151,0.0138,0.0145,0.0148,0.0135,0.0147,0.0147,0.0148,0.0155,0.0143,0.0158,0.0155,0.0177,0.0181,0.0177,0.0178,0.0181,0.02,0.0203,0.0206,0.0212,0.0216,0.0174,0.0174,0.0174,0.0174,0,0.0166,0.017,0.0175,0.018,0.0182,0.019,0.0187,0.0193,0.019,0.0191,0.0205,0.0198,0.0209,0.0206,0.02,0.0219,0.0213,0.0201,0.0193,0.0212,0.0217,0.022,0.0176,0.0176,0.0175,0.0175,0,0,0.0186,0.0188,0.0191,0.0198,0.0201,0.0207,0.0223,0.0236,0.0252,0.0246,0.0268,0.0268,0.0259,0.0262,0.0252,0.0254,0.0269,0.0236,0.0236,0.0246,0.0282,0.0275,0.0278,0.0259,0.0259,0.026,0.028,0,0.0208,0.0227,0.0224,0.0248,0.0259,0.0254,0.0273,0.0282,0.0287,0.0304,0.0297,0.0312,0.0282,0.0289,0.0285,0.0276,0.0278,0.0265,0.0261,0.0261,0.0255,0.0281,0.0287,0.0306,0.0283,0.0284,0.0284,0,0.0233,0.0242,0.0265,0.0283,0.0288,0.0301,0.0328,0.0343,0.0361,0.0366,0.0374,0.0367,0.0375,0.0341,0.0336,0.0329,0.0308,0.0295,0.0295,0.0282,0.026,0.0283,0.0312,0.0289,0.0289,0.0288,0.0288,0,0.0255,0.0275,0.0294,0.0298,0.0315,0.0329,0.0344,0.0364,0.0387,0.0408,0.0431,0.0426,0.0438,0.0409,0.0376,0.036,0.0366,0.0342,0.0316,0.0316,0.0317,0.0316,0.0336,0.0336,0.0336,0.0336,0.0335,0,0.028,0.0298,0.0305,0.0315,0.0348,0.0351,0.0393,0.0405,0.0436,0.0479,0.0465,0.0496,0.0455,0.045,0.0403,0.0376,0.0389,0.0331,0.0324,0.0327,0.0326,0.0305,0.0301,0.0336,0.0336,0.0336,0.0336,0,0.0302,0.0305,0.0331,0.035,0.0358,0.0383,0.0425,0.0456,0.0481,0.0538,0.0551,0.0562,0.056,0.0512,0.0477,0.0426,0.039,0.0372,0.038,0.0373,0.033,0.0327,0.0355,0.0355,0.0355,0.0355,0.0355,0,0.031,0.0324,0.0355,0.0373,0.0382,0.0418,0.0448,0.0478,0.0517,0.0583,0.0615,0.0631,0.0644,0.0589,0.0513,0.0443,0.0412,0.0389,0.0356,0.0343,0.0333,0.0331,0.0328,0.0371,0.0371,0.0372,0.0372,0,0.0329,0.0342,0.0362,0.0401,0.0431,0.0472,0.0517,0.0556,0.0606,0.0657,0.072,0.0734,0.0693,0.0634,0.0533,0.0474,0.0399,0.0389,0.0387,0.036,0.0358,0.0348,0.0345,0.0373,0.0373,0.0372,0.0372,0.0372,0.0343,0.0364,0.0391,0.043,0.0468,0.0519,0.0562,0.0617,0.0687,0.076,0.0777,0.0793,0.0727,0.06,0.0517,0.042,0.0424,0.037,0.0369,0.0369,0.0362,0.0359,0.0373,0.0373,0.0373,0.0373,0.0373,0,0.0353,0.0378,0.0415,0.0462,0.0507,0.0525,0.0602,0.0648,0.0732,0.0788,0.0831,0.0754,0.0694,0.0604,0.0478,0.04,0.038,0.0354,0.0354,0.0355,0.0355,0.0346,0.0354,0.0353,0.0353,0.0352,0,0,0.0358,0.039,0.041,0.0478,0.0518,0.0582,0.063,0.0697,0.075,0.0799,0.0805,0.0808,0.0717,0.0613,0.0516,0.0442,0.0407,0.0412,0.0438,0.0452,0.0452,0.0377,0.0366,0,0,0,0,0]}],[{"header":{"parameterUnit":"m.s-1","parameterCategory":2,"la1":30.2991,"la2":30.254,"lo1":-89.0895,"lo2":-89.0444,"dy":0.0017,"dx":0.0017,"nx":28,"ny":28,"refTime":"2025-06-16T03:00:00:Z","depth":"4","parameterNumber":2,"parameterNumberName":"U-component_of_CURRENTS"},"data":[0,0,0,0,0,0,0,0,0,0,0,0,0,0,0,0,0,0,0,0,0,0,0,0,0,0,0,0,0,0,0,0,0,0,0,0,0,0,0,0,0,0,0,0,0,0,0,0,0,0,0,0,0,0,0,0,0,0,0.0556,0.0556,0,0.0555,0.0556,0.0556,0.0582,0.0582,0.0583,0.0584,0.063,0.0631,0.0632,0,0,0,0,0,0,0,0,0,0,0,0,0,0.0602,0.0601,0.0556,0.0556,0.0556,0.0555,0.0556,0.0556,0.0582,0.0582,0.0583,0.0584,0.063,0.0631,0.0632,0,0,0,0,0,0,0,0,0,0,0,0,0,0.059,0.0601,0.0556,0.0568,0.057,0.0555,0.0556,0.0556,0.0581,0.0582,0.0583,0.0584,0.063,0.0631,0.0632,0.0619,0,0,0.0635,0.0635,0,0,0,0,0,0,0,0,0.0591,0.0589,0.0567,0.0568,0.0569,0.0569,0.0589,0.0579,0.0581,0.0578,0.0584,0.0585,0.0613,0.0615,0.0613,0.0621,0.0623,0.0635,0.0635,0.0636,0.0636,0,0,0,0,0,0,0,0.0592,0.0589,0.0557,0.0567,0.0568,0.0582,0.0581,0.0587,0.0591,0.0578,0.058,0.0578,0.0614,0.0612,0.0615,0.0624,0.0635,0.0636,0.0636,0.0637,0.072,0.0721,0,0,0,0,0,0,0.0588,0.0589,0.0557,0.0557,0.0582,0.058,0.0579,0.0569,0.059,0.0594,0.0577,0.0579,0.061,0.0614,0.0617,0.0672,0.0636,0.0637,0.0637,0.0718,0.072,0.0722,0,0,0,0,0,0,0.0589,0.0585,0.0557,0.0573,0.0571,0.0578,0.0566,0.0568,0.0592,0.0589,0.0594,0.0602,0.0611,0.0615,0.0658,0.0671,0.0637,0.0638,0.0716,0.0719,0.0721,0.0737,0,0,0,0,0,0,0.059,0.0585,0.0594,0.0572,0.0569,0.0564,0.0565,0.0567,0.0587,0.0591,0.0611,0.0615,0.0612,0.0657,0.0659,0.0672,0.0639,0.0714,0.0717,0.072,0.0735,0.074,0.0745,0,0,0,0,0,0.0591,0.0594,0.0594,0.0591,0.0575,0.0564,0.0565,0.0574,0.0588,0.0599,0.0627,0.0616,0.0678,0.0659,0.0661,0.0675,0.0713,0.0716,0.072,0.0733,0.0739,0.0745,0,0,0,0,0,0,0.0623,0.0596,0.0596,0.0592,0.0587,0.0569,0.058,0.0588,0.0616,0.0628,0.0635,0.0641,0.068,0.0684,0.0663,0.0711,0.0693,0.0698,0.0702,0.0708,0.0713,0.0719,0.064,0,0,0,0,0,0.0631,0.0622,0.0604,0.0603,0.0601,0.0597,0.0601,0.0603,0.0614,0.0628,0.0645,0.067,0.069,0.0707,0.0721,0.0748,0.0752,0.0762,0.0766,0.077,0.0779,0.0806,0.0813,0.0734,0.0734,0.0734,0,0,0.0638,0.0626,0.062,0.0609,0.0604,0.0603,0.0602,0.0607,0.0618,0.0628,0.0666,0.0685,0.0703,0.0733,0.0751,0.0742,0.0794,0.0775,0.0778,0.0785,0.081,0.0818,0.0825,0.0736,0.0736,0.0735,0,0,0.0644,0.064,0.0637,0.0634,0.0631,0.0623,0.0631,0.0629,0.0645,0.0677,0.069,0.0726,0.0758,0.077,0.0781,0.0825,0.0817,0.0834,0.0863,0.0889,0.0895,0.0901,0.0904,0.091,0.0839,0.0839,0.0839,0,0.0666,0.0646,0.0638,0.0639,0.064,0.0636,0.0639,0.0647,0.0666,0.0684,0.0697,0.0761,0.0772,0.081,0.0831,0.0833,0.0846,0.0833,0.0893,0.0899,0.0904,0.0907,0.0913,0.084,0.084,0.084,0.084,0,0.0657,0.0658,0.0656,0.065,0.0657,0.0653,0.0658,0.0674,0.0697,0.0711,0.0765,0.0792,0.0834,0.0842,0.0853,0.09,0.0895,0.0891,0.0871,0.0913,0.0913,0.0919,0.0842,0.0841,0.0841,0.0841,0,0,0.0665,0.0653,0.0655,0.0656,0.0661,0.0658,0.068,0.0693,0.0713,0.0754,0.0795,0.0842,0.087,0.0888,0.0905,0.0933,0.0976,0.094,0.094,0.0931,0.1028,0.0936,0.0934,0.0989,0.099,0.0992,0.1007,0,0.0665,0.066,0.0659,0.0664,0.0661,0.067,0.0689,0.071,0.0738,0.0777,0.0821,0.0867,0.0883,0.0915,0.0949,0.0975,0.0996,0.0972,0.1,0.1001,0.0904,0.0939,0.0996,0.1012,0.1013,0.1014,0.1015,0,0.0656,0.0654,0.0657,0.0663,0.0665,0.0677,0.0702,0.0722,0.0771,0.0802,0.0862,0.0896,0.0959,0.0962,0.103,0.102,0.1033,0.1043,0.1044,0.0958,0.0921,0.0967,0.1026,0.1025,0.1024,0.1023,0.1023,0,0.0646,0.0651,0.0652,0.0654,0.0665,0.0682,0.0699,0.074,0.0761,0.0832,0.0859,0.0935,0.0985,0.1024,0.1056,0.1056,0.1112,0.1104,0.1026,0.1018,0.1087,0.1081,0.1142,0.1142,0.1142,0.1142,0.1142,0,0.0629,0.0634,0.0651,0.0647,0.0664,0.0688,0.0715,0.0743,0.0793,0.0819,0.0885,0.0912,0.101,0.1047,0.1067,0.1064,0.1121,0.1036,0.1022,0.1093,0.1087,0.109,0.1084,0.1142,0.1142,0.1142,0.1142,0,0.0614,0.062,0.0625,0.0644,0.0657,0.0678,0.0716,0.073,0.0786,0.0823,0.085,0.0923,0.0973,0.1028,0.1089,0.1065,0.1071,0.1049,0.1113,0.1101,0.0956,0.0951,0.0967,0.0964,0.0961,0.0959,0.0957,0,0.0604,0.0603,0.0622,0.063,0.0644,0.0674,0.0688,0.0734,0.0743,0.0807,0.0814,0.0887,0.0927,0.0939,0.1002,0.1025,0.1014,0.1002,0.0991,0.0956,0.0941,0.094,0.0938,0.0953,0.0953,0.0952,0.0951,0,0.0591,0.0602,0.0601,0.0611,0.0628,0.0631,0.0654,0.065,0.0696,0.0753,0.0763,0.0789,0.0837,0.0888,0.0916,0.0926,0.1006,0.0976,0.0981,0.0971,0.094,0.0927,0.0929,0.0942,0.0944,0.0945,0.0945,0,0.059,0.0584,0.0581,0.0585,0.0598,0.0577,0.0591,0.0591,0.0606,0.067,0.0673,0.0745,0.0824,0.0834,0.0851,0.0865,0.0855,0.0825,0.0838,0.0848,0.0803,0.0746,0.0682,0,0,0,0,0,0.0585,0.056,0.0555,0.0533,0.0538,0.0545,0.0557,0.0567,0.0604,0.0594,0.0631,0.0665,0.0701,0.0736,0.0731,0.0795,0.0857,0.0782,0.0828,0.0894,0.0904,0.0862,0,0,0,0,0,0,0.0575,0.0566,0.0538,0.0488,0.0469,0.0459,0.0466,0.0492,0.0479,0.0536,0.0565,0.0619,0.0672,0.0713,0.0722,0.0732,0.0742,0.0831,0.0828,0.0888,0.0897,0.0905,0.0866,0,0,0,0,0]},{"header":{"parameterUnit":"m.s-1","parameterCategory":2,"la1":30.2991,"la2":30.254,"lo1":-89.0895,"lo2":-89.0444,"dy":0.0017,"dx":0.0017,"nx":28,"ny":28,"refTime":"2025-06-16T03:00:00:Z","depth":"4","parameterNumber":3,"parameterNumberName":"V-component_of_CURRENTS"},"data":[0,0,0,0,0,0,0,0,0,0,0,0,0,0,0,0,0,0,0,0,0,0,0,0,0,0,0,0,0,0,0,0,0,0,0,0,0,0,0,0,0,0,0,0,0,0,0,0,0,0,0,0,0,0,0,0,0,0,0.0119,0.0119,0,0.0119,0.0119,0.0119,0.0116,0.0116,0.0116,0.0116,0.0117,0.0117,0.0117,0,0,0,0,0,0,0,0,0,0,0,0,0,0.011,0.011,0.0119,0.0119,0.0119,0.0119,0.0119,0.0119,0.0116,0.0116,0.0116,0.0116,0.0117,0.0117,0.0117,0,0,0,0,0,0,0,0,0,0,0,0,0,0.0113,0.011,0.0119,0.0117,0.0117,0.0119,0.0119,0.0119,0.0116,0.0116,0.0116,0.0116,0.0117,0.0117,0.0117,0.0122,0,0,0.0118,0.0118,0,0,0,0,0,0,0,0,0.0113,0.0113,0.0117,0.0117,0.0117,0.0117,0.0116,0.012,0.0116,0.0117,0.0116,0.0116,0.0117,0.0117,0.0118,0.0122,0.0123,0.0118,0.0118,0.0118,0.0118,0,0,0,0,0,0,0,0.0112,0.0113,0.0119,0.0117,0.0117,0.0114,0.0114,0.0117,0.0118,0.0117,0.0117,0.0116,0.0117,0.0118,0.0118,0.0123,0.0118,0.0118,0.0118,0.0119,0.0125,0.0125,0,0,0,0,0,0,0.0112,0.0113,0.0119,0.0119,0.0114,0.0114,0.0115,0.0118,0.0118,0.0118,0.0116,0.0116,0.0118,0.0118,0.0118,0.0127,0.0118,0.0119,0.0119,0.0125,0.0125,0.0125,0,0,0,0,0,0,0.0112,0.0113,0.0119,0.0116,0.0116,0.0115,0.0118,0.0118,0.0119,0.0118,0.0117,0.0117,0.0118,0.0118,0.012,0.0127,0.0119,0.0119,0.0125,0.0125,0.0125,0.0143,0,0,0,0,0,0,0.0112,0.0113,0.0115,0.0116,0.0116,0.0123,0.0118,0.0118,0.0118,0.0118,0.0119,0.0119,0.0117,0.012,0.012,0.0127,0.0119,0.0125,0.0125,0.0125,0.0142,0.0144,0.0145,0,0,0,0,0,0.0112,0.0115,0.0115,0.0116,0.0119,0.0123,0.0123,0.0121,0.0119,0.0122,0.0119,0.0119,0.012,0.012,0.012,0.0128,0.0125,0.0125,0.0125,0.0142,0.0143,0.0145,0,0,0,0,0,0,0.0113,0.0115,0.0115,0.012,0.0122,0.0122,0.0124,0.0123,0.0124,0.0123,0.012,0.012,0.0124,0.0122,0.0121,0.0129,0.0122,0.0122,0.0135,0.0136,0.0137,0.0143,0.0119,0,0,0,0,0,0.0115,0.0118,0.0119,0.0124,0.0125,0.0125,0.0126,0.0126,0.0126,0.0127,0.0126,0.0125,0.0125,0.0127,0.0126,0.0133,0.0127,0.0137,0.0138,0.0139,0.0143,0.0139,0.014,0.0125,0.0125,0.0125,0,0,0.0116,0.0118,0.012,0.0124,0.0126,0.0132,0.0125,0.0129,0.0135,0.0127,0.0134,0.0129,0.0126,0.0131,0.0133,0.0132,0.0139,0.0139,0.014,0.0144,0.0139,0.014,0.0142,0.0125,0.0125,0.0125,0,0,0.0122,0.0124,0.0128,0.0132,0.0135,0.0138,0.0139,0.0141,0.0142,0.0148,0.0141,0.014,0.0143,0.0142,0.0142,0.0149,0.0143,0.0149,0.0164,0.0159,0.0161,0.0162,0.0152,0.0152,0.0152,0.0152,0.0152,0,0.0124,0.0132,0.0131,0.0137,0.0142,0.0141,0.0149,0.0152,0.0154,0.0159,0.0152,0.0154,0.0149,0.0157,0.0157,0.0153,0.0147,0.016,0.0161,0.0162,0.0163,0.0153,0.0153,0.0153,0.0153,0.0153,0.0153,0,0.0134,0.0142,0.0145,0.0155,0.0159,0.0167,0.017,0.0177,0.0178,0.0179,0.0185,0.0177,0.0179,0.0176,0.0168,0.0174,0.0166,0.0162,0.0159,0.0166,0.0154,0.0154,0.0154,0.0154,0.0154,0.0153,0,0,0.0139,0.015,0.0153,0.0162,0.017,0.0177,0.0189,0.0201,0.0213,0.021,0.0224,0.0215,0.021,0.0208,0.02,0.0195,0.0189,0.0182,0.0181,0.0175,0.0177,0.0177,0.0177,0.0186,0.0186,0.0186,0.0165,0,0.015,0.0166,0.0169,0.0189,0.0198,0.0204,0.0218,0.0228,0.0232,0.0245,0.0238,0.0245,0.0223,0.0227,0.0217,0.0199,0.019,0.0195,0.0169,0.0168,0.017,0.0177,0.0187,0.0165,0.0165,0.0164,0.0164,0,0.0162,0.0172,0.0189,0.0212,0.0217,0.0229,0.0254,0.0267,0.0282,0.0286,0.0289,0.0282,0.0278,0.0257,0.0228,0.0233,0.0205,0.0188,0.0186,0.0182,0.0168,0.0157,0.0163,0.0164,0.0164,0.0164,0.0164,0,0.017,0.019,0.0206,0.0212,0.0233,0.0247,0.0264,0.0281,0.0301,0.0315,0.0329,0.0317,0.032,0.0285,0.0243,0.0237,0.021,0.0197,0.0169,0.0169,0.0166,0.0165,0.0174,0.0174,0.0174,0.0174,0.0174,0,0.0181,0.0197,0.0212,0.0221,0.025,0.0261,0.0295,0.0309,0.0336,0.0363,0.0352,0.0364,0.0327,0.0306,0.0258,0.0216,0.022,0.0175,0.0166,0.0173,0.0173,0.0166,0.0165,0.0173,0.0173,0.0173,0.0174,0,0.0188,0.0196,0.0219,0.0243,0.0254,0.0277,0.0321,0.0347,0.0368,0.0403,0.0412,0.0406,0.0381,0.0337,0.0286,0.0243,0.0197,0.0179,0.0191,0.0183,0.0152,0.0153,0.0147,0.0147,0.0147,0.0147,0.0147,0,0.0191,0.0203,0.0233,0.0251,0.0263,0.03,0.0329,0.0362,0.0392,0.0424,0.0443,0.0433,0.042,0.035,0.0297,0.0219,0.0202,0.0173,0.0159,0.0159,0.0151,0.0152,0.0152,0.0147,0.0147,0.0147,0.0147,0,0.02,0.0211,0.0229,0.0263,0.0293,0.0333,0.0376,0.04,0.044,0.0459,0.0468,0.0436,0.0411,0.0352,0.03,0.0237,0.019,0.0172,0.0171,0.0157,0.0158,0.0151,0.0151,0.0146,0.0146,0.0146,0.0146,0,0.0208,0.0221,0.0243,0.0275,0.0313,0.0353,0.0377,0.0414,0.0446,0.0479,0.0478,0.0448,0.0436,0.0361,0.0307,0.0257,0.0234,0.02,0.0197,0.0197,0.0217,0.0225,0.0231,0,0,0,0,0,0.0213,0.0227,0.0255,0.0288,0.0327,0.0351,0.0404,0.0428,0.0464,0.0472,0.0478,0.0452,0.0383,0.0356,0.0306,0.0297,0.0222,0.0234,0.018,0.0145,0.0145,0.016,0,0,0,0,0,0,0.0215,0.0239,0.0251,0.0293,0.0319,0.0365,0.0399,0.0425,0.0435,0.0458,0.0426,0.0422,0.0361,0.041,0.0298,0.0285,0.0239,0.021,0.0208,0.0145,0.0145,0.0145,0.016,0,0,0,0,0]}]]